N709LP KROC-KPWM

Flight info

Callsign N709LP
Flight time 0h 53m
Altitude 39000
Route KONDO CDOGG
Aircraft CL60/M-SBDE1E2E3FGHIJ1J4J5J7M3RWXYZ/LB1V1D1

Departure

Time 2026-05-05 18:45
Airport Frederick Douglass Greater Rochester International Airport (KROC)

Arrival

Time 2026-05-05 19:39
Airport Portland International Jetport (KPWM)
Time Latitude Longitude Altitude Speed Heading
2026-05-05 18:30 43.11973 -77.65804 537 ft 0 kts 240°
2026-05-05 18:40 43.11969 -77.65817 537 ft 4 kts 270°
2026-05-05 18:40 43.11989 -77.65842 538 ft 2 kts 333°
2026-05-05 18:41 43.11998 -77.65848 538 ft 2 kts 332°
2026-05-05 18:41 43.12030 -77.65849 538 ft 8 kts 39°
2026-05-05 18:41 43.12072 -77.65740 536 ft 16 kts 64°
2026-05-05 18:41 43.12124 -77.65607 536 ft 14 kts 40°
2026-05-05 18:42 43.12205 -77.65597 536 ft 9 kts
2026-05-05 18:42 43.12237 -77.65505 536 ft 13 kts 90°
2026-05-05 18:42 43.12255 -77.65388 536 ft 6 kts 31°
2026-05-05 18:42 43.12258 -77.65386 536 ft 0 kts 27°
2026-05-05 18:44 43.12293 -77.65378 535 ft 8 kts 352°
2026-05-05 18:44 43.12346 -77.65425 536 ft 6 kts 288°
2026-05-05 18:44 43.12347 -77.65454 537 ft 4 kts 266°
2026-05-05 18:45 43.12338 -77.65753 540 ft 73 kts 266°
2026-05-05 18:45 43.12305 -77.66862 562 ft 151 kts 270°
2026-05-05 18:45 43.12276 -77.68374 1330 ft 162 kts 268°
2026-05-05 18:45 43.12264 -77.69807 2596 ft 152 kts 269°
2026-05-05 18:46 43.12349 -77.71264 3430 ft 166 kts 274°
2026-05-05 18:46 43.12671 -77.72762 4007 ft 173 kts 294°
2026-05-05 18:46 43.13842 -77.73854 4271 ft 242 kts 343°
2026-05-05 18:46 43.15553 -77.73504 5380 ft 270 kts 21°
2026-05-05 18:47 43.16991 -77.71711 6381 ft 293 kts 60°
2026-05-05 18:47 43.17514 -77.69108 7442 ft 296 kts 96°
2026-05-05 18:47 43.16949 -77.66512 8603 ft 281 kts 134°
2026-05-05 18:47 43.15698 -77.64513 9729 ft 279 kts 141°
2026-05-05 18:48 43.14499 -77.62399 10799 ft 292 kts 132°
2026-05-05 18:48 43.13504 -77.59941 11868 ft 304 kts 122°
2026-05-05 18:48 43.12770 -77.57057 12210 ft 344 kts 105°
2026-05-05 18:48 43.12646 -77.53633 12774 ft 370 kts 91°
2026-05-05 18:49 43.12746 -77.50077 13635 ft 380 kts 91°
2026-05-05 18:49 43.12840 -77.46482 14532 ft 387 kts 91°
2026-05-05 18:49 43.12937 -77.42760 15404 ft 393 kts 91°
2026-05-05 18:49 43.13036 -77.38975 16263 ft 398 kts 91°
2026-05-05 18:50 43.13134 -77.35202 17117 ft 402 kts 91°
2026-05-05 18:50 43.13202 -77.32584 17698 ft 405 kts 92°
2026-05-05 18:50 43.13303 -77.28744 18513 ft 408 kts 92°
2026-05-05 18:50 43.13404 -77.24827 19296 ft 413 kts 92°
2026-05-05 18:51 43.13504 -77.20868 19990 ft 418 kts 92°
2026-05-05 18:51 43.13604 -77.16919 20693 ft 422 kts 92°
2026-05-05 18:51 43.13705 -77.12891 21405 ft 426 kts 92°
2026-05-05 18:51 43.13806 -77.08816 22093 ft 430 kts 92°
2026-05-05 18:52 43.13907 -77.04678 22666 ft 436 kts 92°
2026-05-05 18:52 43.14008 -77.00536 23289 ft 440 kts 91°
2026-05-05 18:52 43.14107 -76.96366 23898 ft 445 kts 92°
2026-05-05 18:52 43.14208 -76.92117 24471 ft 450 kts 91°
2026-05-05 18:53 43.14309 -76.87779 25066 ft 454 kts 91°
2026-05-05 18:53 43.14410 -76.83390 25624 ft 458 kts 90°
2026-05-05 18:53 43.14508 -76.79018 26158 ft 462 kts 91°
2026-05-05 18:53 43.14657 -76.74666 26642 ft 467 kts 86°
2026-05-05 18:54 43.15003 -76.70222 27159 ft 471 kts 85°
2026-05-05 18:54 43.15369 -76.65694 27594 ft 476 kts 85°
2026-05-05 18:54 43.15729 -76.61192 28076 ft 479 kts 85°
2026-05-05 18:54 43.16091 -76.56657 28461 ft 484 kts 84°
2026-05-05 18:55 43.16455 -76.52086 28907 ft 486 kts 85°
2026-05-05 18:55 43.16821 -76.47456 29350 ft 489 kts 84°
2026-05-05 18:55 43.17186 -76.42814 29824 ft 490 kts 84°
2026-05-05 18:55 43.17551 -76.38146 30153 ft 494 kts 84°
2026-05-05 18:56 43.17888 -76.33813 30504 ft 497 kts 84°
2026-05-05 18:56 43.18239 -76.29278 30810 ft 500 kts 84°
2026-05-05 18:56 43.18608 -76.24505 31079 ft 503 kts 85°
2026-05-05 18:56 43.18973 -76.19747 31442 ft 504 kts 84°
2026-05-05 18:57 43.19339 -76.14947 31717 ft 508 kts 84°
2026-05-05 18:57 43.19703 -76.10159 31943 ft 511 kts 84°
2026-05-05 18:57 43.20071 -76.05290 32222 ft 512 kts 84°
2026-05-05 18:57 43.20435 -76.00449 32462 ft 515 kts 85°
2026-05-05 18:58 43.20802 -75.95547 32632 ft 518 kts 84°
2026-05-05 18:58 43.21168 -75.90622 32772 ft 522 kts 84°
2026-05-05 18:58 43.21532 -75.85675 33008 ft 522 kts 83°
2026-05-05 18:58 43.21892 -75.80757 33233 ft 523 kts 84°
2026-05-05 18:59 43.22256 -75.75764 33463 ft 524 kts 84°
2026-05-05 18:59 43.22617 -75.70783 33771 ft 523 kts 84°
2026-05-05 18:59 43.22973 -75.65848 34143 ft 520 kts 85°
2026-05-05 18:59 43.23323 -75.60946 34473 ft 519 kts 84°
2026-05-05 19:00 43.23675 -75.56001 34792 ft 518 kts 84°
2026-05-05 19:00 43.24020 -75.51131 35057 ft 517 kts 85°
2026-05-05 19:00 43.24365 -75.46239 35355 ft 515 kts 84°
2026-05-05 19:00 43.24707 -75.41337 35613 ft 514 kts 84°
2026-05-05 19:01 43.25045 -75.36463 35907 ft 512 kts 84°
2026-05-05 19:01 43.25318 -75.32516 36183 ft 509 kts 86°
2026-05-05 19:01 43.25619 -75.28117 36449 ft 507 kts 86°
2026-05-05 19:01 43.25955 -75.23221 36742 ft 504 kts 85°
2026-05-05 19:02 43.26275 -75.18488 37079 ft 502 kts 86°
2026-05-05 19:02 43.26594 -75.13728 37297 ft 502 kts 86°
2026-05-05 19:02 43.26913 -75.08948 37474 ft 502 kts 86°
2026-05-05 19:02 43.27227 -75.04224 37730 ft 501 kts 86°
2026-05-05 19:03 43.27541 -74.99448 37920 ft 500 kts 86°
2026-05-05 19:03 43.27853 -74.94706 38125 ft 499 kts 86°
2026-05-05 19:03 43.28162 -74.89959 38381 ft 497 kts 86°
2026-05-05 19:03 43.28464 -74.85300 38569 ft 497 kts 86°
2026-05-05 19:04 43.28770 -74.80543 38730 ft 496 kts 86°
2026-05-05 19:04 43.29069 -74.75874 38778 ft 498 kts 86°
2026-05-05 19:04 43.29670 -74.66364 38783 ft 500 kts 86°
2026-05-05 19:05 43.30261 -74.56909 38781 ft 499 kts 86°
2026-05-05 19:05 43.30846 -74.47415 38775 ft 498 kts 86°
2026-05-05 19:06 43.31421 -74.37952 38783 ft 496 kts 87°
2026-05-05 19:06 43.31941 -74.29311 38778 ft 495 kts 87°
2026-05-05 19:07 43.32500 -74.19878 38776 ft 495 kts 88°
2026-05-05 19:07 43.33051 -74.10408 38775 ft 495 kts 88°
2026-05-05 19:08 43.33592 -74.00979 38775 ft 494 kts 87°
2026-05-05 19:08 43.34125 -73.91551 38778 ft 494 kts 88°
2026-05-05 19:09 43.34652 -73.82111 38743 ft 494 kts 87°
2026-05-05 19:09 43.35172 -73.72628 38742 ft 494 kts 87°
2026-05-05 19:10 43.35668 -73.63467 38742 ft 494 kts 88°
2026-05-05 19:10 43.36171 -73.54034 38737 ft 494 kts 88°
2026-05-05 19:11 43.36663 -73.44647 38743 ft 493 kts 88°
2026-05-05 19:11 43.37147 -73.35283 38752 ft 493 kts 88°
2026-05-05 19:12 43.37599 -73.26363 38746 ft 492 kts 88°
2026-05-05 19:12 43.38066 -73.17027 38757 ft 492 kts 88°
2026-05-05 19:13 43.38529 -73.07632 38765 ft 492 kts 89°
2026-05-05 19:13 43.38980 -72.98312 38782 ft 492 kts 89°
2026-05-05 19:14 43.39428 -72.88886 38785 ft 493 kts 88°
2026-05-05 19:14 43.39866 -72.79497 38791 ft 492 kts 89°
2026-05-05 19:15 43.40295 -72.70142 38792 ft 491 kts 89°
2026-05-05 19:15 43.40719 -72.60740 38784 ft 491 kts 89°
2026-05-05 19:16 43.40926 -72.56053 38346 ft 498 kts 88°
2026-05-05 19:16 43.41134 -72.51295 37671 ft 498 kts 88°
2026-05-05 19:16 43.41340 -72.46571 37055 ft 494 kts 88°
2026-05-05 19:16 43.41540 -72.41912 36527 ft 494 kts 88°
2026-05-05 19:17 43.41740 -72.37215 35869 ft 495 kts 88°
2026-05-05 19:17 43.41927 -72.32764 35295 ft 494 kts 88°
2026-05-05 19:17 43.42115 -72.28253 34681 ft 494 kts 88°
2026-05-05 19:17 43.42307 -72.23589 33995 ft 494 kts 88°
2026-05-05 19:18 43.42501 -72.18829 33353 ft 494 kts 88°
2026-05-05 19:18 43.42690 -72.14139 32711 ft 493 kts 88°
2026-05-05 19:18 43.42878 -72.09441 32060 ft 489 kts 89°
2026-05-05 19:18 43.43061 -72.04808 31412 ft 484 kts 89°
2026-05-05 19:19 43.43241 -72.00224 30788 ft 479 kts 89°
2026-05-05 19:19 43.43417 -71.95689 30154 ft 474 kts 89°
2026-05-05 19:19 43.43590 -71.91174 29527 ft 469 kts 89°
2026-05-05 19:19 43.43759 -71.86733 28905 ft 464 kts 89°
2026-05-05 19:20 43.43925 -71.82315 28279 ft 460 kts 90°
2026-05-05 19:20 43.44088 -71.77939 27675 ft 456 kts 90°
2026-05-05 19:20 43.44246 -71.73632 27080 ft 453 kts 90°
2026-05-05 19:20 43.44403 -71.69334 26472 ft 450 kts 90°
2026-05-05 19:21 43.44557 -71.65074 25875 ft 446 kts 90°
2026-05-05 19:21 43.44709 -71.60831 25293 ft 442 kts 89°
2026-05-05 19:21 43.44857 -71.56685 24702 ft 437 kts 90°
2026-05-05 19:21 43.45003 -71.52518 24122 ft 433 kts 90°
2026-05-05 19:22 43.45147 -71.48386 23552 ft 429 kts 90°
2026-05-05 19:22 43.45287 -71.44273 22983 ft 427 kts 90°
2026-05-05 19:22 43.45425 -71.40213 22429 ft 423 kts 90°
2026-05-05 19:22 43.45560 -71.36194 21864 ft 420 kts 90°
2026-05-05 19:23 43.45688 -71.32331 21324 ft 417 kts 91°
2026-05-05 19:23 43.45818 -71.28381 20775 ft 414 kts 90°
2026-05-05 19:23 43.45948 -71.24403 20230 ft 411 kts 90°
2026-05-05 19:23 43.46073 -71.20486 19678 ft 408 kts 90°
2026-05-05 19:24 43.46197 -71.16620 19140 ft 406 kts 90°
2026-05-05 19:24 43.46249 -71.12760 18593 ft 401 kts 95°
2026-05-05 19:24 43.46032 -71.08972 18070 ft 396 kts 100°
2026-05-05 19:24 43.45743 -71.05201 17542 ft 394 kts 99°
2026-05-05 19:25 43.45461 -71.01448 17106 ft 390 kts 99°
2026-05-05 19:25 43.45181 -70.97736 16628 ft 392 kts 99°
2026-05-05 19:25 43.44900 -70.94006 16162 ft 389 kts 99°
2026-05-05 19:25 43.44623 -70.90332 15652 ft 388 kts 99°
2026-05-05 19:26 43.44347 -70.86665 15130 ft 386 kts 99°
2026-05-05 19:26 43.44073 -70.83011 14657 ft 382 kts 99°
2026-05-05 19:26 43.43798 -70.79363 14198 ft 383 kts 99°
2026-05-05 19:26 43.43525 -70.75749 13610 ft 381 kts 98°
2026-05-05 19:27 43.43254 -70.72138 13147 ft 378 kts 98°
2026-05-05 19:27 43.42981 -70.68547 12641 ft 375 kts 98°
2026-05-05 19:27 43.42723 -70.65032 12133 ft 371 kts 97°
2026-05-05 19:27 43.42868 -70.61547 12103 ft 354 kts 79°
2026-05-05 19:28 43.43621 -70.58428 12075 ft 337 kts 64°
2026-05-05 19:28 43.44632 -70.55572 11866 ft 328 kts 63°
2026-05-05 19:28 43.45631 -70.52771 11550 ft 325 kts 63°
2026-05-05 19:28 43.46619 -70.49998 11246 ft 322 kts 64°
2026-05-05 19:29 43.47612 -70.47213 10844 ft 321 kts 64°
2026-05-05 19:29 43.48600 -70.44445 10345 ft 320 kts 64°
2026-05-05 19:29 43.49571 -70.41724 9895 ft 319 kts 64°
2026-05-05 19:29 43.50557 -70.38960 9451 ft 317 kts 64°
2026-05-05 19:30 43.51516 -70.36272 8971 ft 313 kts 64°
2026-05-05 19:30 43.52413 -70.33758 8456 ft 312 kts 65°
2026-05-05 19:30 43.53556 -70.31262 7951 ft 306 kts 44°
2026-05-05 19:30 43.55266 -70.29604 7384 ft 299 kts 24°
2026-05-05 19:31 43.56983 -70.28024 6769 ft 305 kts 46°
2026-05-05 19:31 43.58038 -70.25504 6185 ft 300 kts 81°
2026-05-05 19:31 43.58050 -70.22729 5596 ft 285 kts 114°
2026-05-05 19:31 43.57098 -70.20515 5034 ft 261 kts 147°
2026-05-05 19:32 43.55584 -70.19377 4533 ft 241 kts 175°
2026-05-05 19:32 43.53984 -70.19542 4087 ft 225 kts 209°
2026-05-05 19:32 43.52890 -70.20976 3639 ft 223 kts 243°
2026-05-05 19:32 43.52454 -70.23023 3195 ft 226 kts 255°
2026-05-05 19:33 43.52246 -70.25183 2828 ft 228 kts 267°
2026-05-05 19:33 43.52796 -70.27232 2589 ft 240 kts 303°
2026-05-05 19:33 43.54257 -70.28368 2332 ft 255 kts 347°
2026-05-05 19:33 43.55949 -70.27859 2293 ft 243 kts 40°
2026-05-05 19:34 43.56885 -70.26118 2206 ft 221 kts 65°
2026-05-05 19:34 43.57626 -70.24348 1976 ft 206 kts 71°
2026-05-05 19:34 43.58266 -70.22624 1772 ft 204 kts 66°
2026-05-05 19:35 43.60274 -70.19958 2006 ft 207 kts 31°
2026-05-05 19:35 43.61627 -70.19209 2073 ft 209 kts
2026-05-05 19:35 43.63068 -70.18851 1960 ft 206 kts
2026-05-05 19:35 43.64423 -70.19155 1791 ft 194 kts 330°
2026-05-05 19:36 43.65526 -70.20162 1636 ft 182 kts 306°
2026-05-05 19:36 43.66140 -70.21426 1377 ft 139 kts 277°
2026-05-05 19:36 43.66201 -70.22601 1113 ft 116 kts 248°
2026-05-05 19:36 43.65846 -70.23599 939 ft 108 kts 229°
2026-05-05 19:37 43.65373 -70.24402 761 ft 112 kts 225°
2026-05-05 19:37 43.64845 -70.25261 720 ft 114 kts 226°
2026-05-05 19:37 43.64427 -70.26203 610 ft 113 kts 245°
2026-05-05 19:37 43.64267 -70.27306 431 ft 126 kts 260°
2026-05-05 19:38 43.64329 -70.28511 267 ft 122 kts 266°
2026-05-05 19:38 43.64394 -70.29684 96 ft 122 kts 265°
2026-05-05 19:38 43.64469 -70.30808 58 ft 107 kts 267°
2026-05-05 19:38 43.64514 -70.31695 68 ft 76 kts 275°
2026-05-05 19:39 43.64548 -70.32058 67 ft 14 kts 290°
2026-05-05 19:39 43.64622 -70.32085 67 ft 10 kts
2026-05-05 19:39 43.64657 -70.32025 67 ft 10 kts 95°
2026-05-05 19:39 43.64651 -70.31919 68 ft 11 kts 95°
2026-05-05 19:40 43.64642 -70.31782 70 ft 16 kts 96°
2026-05-05 19:40 43.64630 -70.31622 70 ft 17 kts 95°
2026-05-05 19:40 43.64619 -70.31450 69 ft 18 kts 96°
2026-05-05 19:40 43.64607 -70.31263 66 ft 21 kts 96°
2026-05-05 19:41 43.64593 -70.31057 62 ft 19 kts 95°
2026-05-05 19:41 43.64582 -70.30891 58 ft 12 kts 96°
2026-05-05 19:41 43.64572 -70.30761 54 ft 15 kts 97°
2026-05-05 19:41 43.64631 -70.30698 52 ft 15 kts 355°
2026-05-05 19:42 43.64754 -70.30703 52 ft 19 kts 359°
2026-05-05 19:42 43.64879 -70.30711 53 ft 15 kts 358°
2026-05-05 19:42 43.64954 -70.30714 53 ft 10 kts 358°
2026-05-05 19:42 43.64989 -70.30731 53 ft 3 kts 274°
2026-05-05 19:43 43.64985 -70.30756 54 ft 2 kts 269°
2026-05-05 19:43 43.64984 -70.30789 55 ft 2 kts 269°
2026-05-05 19:43 43.64984 -70.30814 56 ft 3 kts 268°
2026-05-05 19:43 43.64984 -70.30834 57 ft 1 kts 265°
2026-05-05 19:44 43.64978 -70.30843 58 ft 0 kts 183°
2026-05-05 19:44 43.64977 -70.30843 58 ft 0 kts 180°
2026-05-05 19:44 43.64976 -70.30843 58 ft 2 kts 177°
2026-05-05 19:44 43.64975 -70.30843 58 ft 0 kts 177°